Location: Bluff Heights
(33.7692°N, 118.1592°W)
Time: 20:04:57
(UTC+00:00)

Cosmos 2369 - Pass Details

Date: 29 October 2020
Orbit: 841 x 854 km, 71.0° (Epoch: 03 December)

Event Time Altitude Azimuth Distance (km) Brightness Sun altitude
Exits shadow 12:08:29 13° 348° (NNW) 2,240 5.8 -25.7°
Maximum altitude 12:13:28 61° 67° (ENE) 952 4.1 -24.7°
Drops below altitude 10° 12:19:01 10° 148° (SSE) 2,448 6.5 -23.5°
Sets 12:21:28 0° 151° (SSE) 3,379 7.2 -23.0°
